EW0802 Weather Reports


Display with metric or nautical units.
time (UTC)temp
F
wind
direction
speed
MPH
gust
MPH
rain 1hr
in
rain 24hr
in
rain mn
in
humidity
%
barometer
mb
20260903114525 77 236 0.0 1.0 0.00 0.00 0.00 81 1011.1
20260903113039 77 236 0.0 1.0 0.00 0.00 0.00 81 1011.1
20260903111524 76 236 0.0 0.0 0.00 0.00 0.00 81 1011.2
20260903110024 76 236 0.0 0.0 0.00 0.00 0.00 81 1011.0
20260903104532 76 236 0.0 0.0 0.00 0.00 0.00 80 1011.0
20260903103029 76 236 0.0 0.0 0.00 0.00 0.00 81 1010.8
20260903101526 77 236 0.0 0.0 0.00 0.00 0.00 80 1010.8
20260903100026 76 236 0.0 0.0 0.00 0.00 0.00 80 1010.9
20260903094537 77 236 0.0 0.0 0.00 0.00 0.00 80 1010.9
20260903093018 77 236 0.0 0.0 0.00 0.00 0.00 79 1010.9
20260903091517 77 235 0.0 0.0 0.00 0.00 0.00 79 1010.8
20260903090017 77 235 0.0 0.0 0.00 0.00 0.00 78 1010.7
20260903084514 78 235 0.0 0.0 0.00 0.00 0.00 77 1010.8
20260903083013 78 235 0.0 0.0 0.00 0.00 0.00 77 1010.9
20260903081513 78 235 0.0 0.0 0.00 0.00 0.00 76 1010.8
20260903080010 78 235 0.0 0.0 0.00 0.00 0.00 76 1010.7
20260903074509 79 234 0.0 0.0 0.00 0.00 0.00 76 1010.8
20260903073008 79 234 0.0 0.0 0.00 0.00 0.00 75 1011.0
20260903071507 79 234 0.0 1.0 0.00 0.00 0.00 74 1011.0
20260903070005 80 235 0.0 0.0 0.00 0.00 0.00 73 1010.9
20260903064502 80 235 0.0 0.0 0.00 0.00 0.00 73 1010.8
20260903063100 80 235 0.0 1.0 0.00 0.00 0.00 72 1011.2
20260903061558 81 235 0.0 2.0 0.00 0.00 0.00 71 1011.3
20260903060100 81 235 0.0 0.0 0.00 0.00 0.00 71 1011.4
20260903054553 82 236 0.0 2.0 0.00 0.00 0.00 70 1011.6
20260903053051 82 236 0.0 3.0 0.00 0.00 0.00 69 1011.5
20260903051607 82 234 0.0 3.0 0.00 0.00 0.00 68 1011.5
20260903050053 83 235 0.0 3.0 0.00 0.00 0.00 67 1011.5
20260903044549 83 234 0.0 4.0 0.00 0.00 0.00 66 1011.3
20260903043144 84 234 0.0 3.0 0.00 0.00 0.00 65 1011.3
20260903041544 84 234 0.0 1.0 0.00 0.00 0.00 64 1011.2
20260903040044 85 234 0.0 5.0 0.00 0.00 0.00 63 1011.4
20260903034543 86 236 0.0 3.0 0.00 0.00 0.00 62 1011.2
20260903033042 86 236 1.0 4.0 0.00 0.00 0.00 61 1011.1
20260903031542 87 236 1.0 3.0 0.00 0.00 0.00 60 1011.2
20260903030042 87 136 2.0 9.0 0.00 0.00 0.00 59 1011.0
20260903024544 88 109 1.0 8.0 0.00 0.00 0.00 58 1010.7
20260903023041 88 30 1.0 5.0 0.00 0.00 0.00 56 1010.6
20260903021541 89 146 1.0 7.0 0.00 0.00 0.00 55 1010.3
20260903020042 90 15 2.0 7.0 0.00 0.00 0.00 54 1010.1
20260903014548 90 130 1.0 4.0 0.00 0.00 0.00 54 1010.0
20260903013049 91 152 1.0 4.0 0.00 0.00 0.00 53 1009.9
20260903011538 91 84 1.0 6.0 0.00 0.00 0.00 52 1009.7
20260903010041 92 137 0.0 4.0 0.00 0.00 0.00 51 1009.5
20260903004537 93 80 0.0 2.0 0.00 0.00 0.00 51 1009.5
20260903003038 94 348 1.0 6.0 0.00 0.00 0.00 48 1009.6
20260903001536 95 59 2.0 5.0 0.00 0.00 0.00 45 1009.4
20260903000036 97 29 2.0 9.0 0.00 0.00 0.00 44 1009.4
20260902234535 98 116 1.0 4.0 0.00 0.00 0.00 39 1009.1
20260902233036 99 54 1.0 4.0 0.00 0.00 0.00 39 1009.0
20260902231535 100 61 0.0 2.0 0.00 0.00 0.00 39 1009.0
20260902230032 100 186 0.0 4.0 0.00 0.00 0.00 38 1009.0
20260902224542 100 99 1.0 4.0 0.00 0.00 0.00 37 1009.1
20260902223033 100 157 0.0 3.0 0.00 0.00 0.00 38 1009.1
20260902221529 100 146 0.0 3.0 0.00 0.00 0.00 39 1009.2
20260902220027 100 65 1.0 8.0 0.00 0.00 0.00 38 1009.4
20260902214526 100 40 1.0 5.0 0.00 0.00 0.00 38 1009.4
20260902213024 100 51 1.0 4.0 0.00 0.00 0.00 38 1009.6
20260902211522 100 63 1.0 5.0 0.00 0.00 0.00 38 1009.9
20260902210022 100 66 1.0 3.0 0.00 0.00 0.00 40 1009.9
20260902204524 100 65 0.0 5.0 0.00 0.00 0.00 40 1010.1
20260902203020 99 61 0.0 8.0 0.00 0.00 0.00 39 1010.3
20260902201519 99 355 1.0 5.0 0.00 0.00 0.00 37 1010.5
20260902200019 100 145 1.0 5.0 0.00 0.00 0.00 39 1010.7
20260902194519 100 40 1.0 3.0 0.00 0.00 0.00 41 1011.0
20260902193008 100 60 1.0 5.0 0.00 0.00 0.00 40 1011.2
20260902191505 101 60 1.0 3.0 0.00 0.00 0.00 40 1011.7
20260902190113 100 47 1.0 6.0 0.00 0.00 0.00 41 1011.7
20260902184556 99 17 0.0 5.0 0.00 0.00 0.00 41 1012.0
20260902183101 98 338 0.0 5.0 0.00 0.00 0.00 43 1012.1
20260902181550 99 79 1.0 5.0 0.00 0.00 0.00 42 1012.5
20260902180047 97 93 0.0 4.0 0.00 0.00 0.00 43 1012.8
20260902174542 97 78 0.0 3.0 0.00 0.00 0.00 46 1013.1
20260902173038 97 29 0.0 7.0 0.00 0.00 0.00 46 1013.4
20260902171535 96 171 1.0 4.0 0.00 0.00 0.00 46 1013.6
20260902170032 95 293 0.0 3.0 0.00 0.00 0.00 48 1013.8
20260902164527 95 142 1.0 3.0 0.00 0.00 0.00 50 1013.9
20260902163024 94 128 1.0 2.0 0.00 0.00 0.00 50 1014.1
20260902161518 93 152 0.0 2.0 0.00 0.00 0.00 52 1014.2
20260902160017 92 135 1.0 5.0 0.00 0.00 0.00 54 1014.2
20260902154510 91 256 0.0 3.0 0.00 0.00 0.00 53 1014.2
20260902153007 90 112 0.0 1.0 0.00 0.00 0.00 56 1014.2
20260902151501 89 148 0.0 2.0 0.00 0.00 0.00 59 1014.2
20260902150057 87 98 0.0 2.0 0.00 0.00 0.00 61 1014.1
20260902144552 86 134 0.0 2.0 0.00 0.00 0.00 65 1014.1
20260902143048 85 115 0.0 5.0 0.00 0.00 0.00 67 1014.2
20260902141544 83 81 0.0 2.0 0.00 0.00 0.00 70 1014.1
20260902140046 81 152 0.0 4.0 0.00 0.00 0.00 72 1014.1
20260902134537 80 114 0.0 2.0 0.00 0.00 0.00 74 1014.1
20260902133034 80 81 0.0 2.0 0.00 0.00 0.00 75 1014.2
20260902131534 79 88 0.0 1.0 0.00 0.00 0.00 76 1014.2
20260902130030 78 124 0.0 2.0 0.00 0.00 0.00 77 1013.8
20260902124527 78 105 0.0 1.0 0.00 0.00 0.00 76 1013.6
20260902123024 78 360 0.0 0.0 0.00 0.00 0.00 76 1013.5
20260902121522 78 132 0.0 0.0 0.00 0.00 0.00 75 1013.3
20260902120023 78 132 0.0 1.0 0.00 0.00 0.00 75 1013.4